Location: Clanezzo
(45.7500°N, 9.6000°E)
Time: 09:29:05
(UTC+00:00)

STARS - Pass Details

Date: 11 July 2022
Orbit: 620 x 637 km, 98.2° (Epoch: 14 August)

Event Time Altitude Azimuth Distance (km) Brightness Sun altitude
Rises 21:08:08 0° 27° (NNE) 2,920 ? -15.2°
Reaches altitude 10° 21:10:50 10° 44° (NE) 2,004 ? -15.5°
Maximum altitude 21:14:06 21° 93° (E) 1,428 ? -15.8°
Enters shadow 21:14:49 20° 106° (ESE) 1,458 ? -15.9°
